FW7644 Weather Reports


time (UTC)temp
C
wind
direction
speed
KPH
gust
KPH
rain 1hr
cm
rain 24hr
cm
rain mn
cm
humidity
%
barometer
mb
20260510024313 6 0.0 0.0 0.20 3.45 3.00 99 1021.0
20260510023811 6 0.0 0.0 0.23 3.43 2.97 99 1021.1
20260510023309 6 0.0 0.0 0.20 3.40 2.95 99 1021.2
20260510022808 6 0.0 0.0 0.23 3.38 2.92 99 1021.2
20260510022307 6 0.0 0.0 0.23 3.38 2.92 99 1021.1
20260510021805 6 0.0 0.0 0.25 3.35 2.90 99 1021.3
20260510021303 6 0.0 0.0 0.25 3.35 2.90 99 1021.3
20260510020801 6 0.0 0.0 0.30 3.35 2.90 99 1021.4
20260510020259 6 0.0 0.0 0.28 3.33 2.87 99 1021.4
20260510015757 6 0.0 0.0 0.33 4.06 2.87 99 1021.4
20260510015255 6 0.0 0.0 0.30 4.04 2.84 99 1021.3
20260510014753 6 0.0 0.0 0.30 4.04 2.84 99 1021.4
20260510014251 6 0.0 0.0 0.28 4.01 2.82 99 1021.7
20260510013749 6 0.0 0.0 0.28 3.96 2.77 99 1021.8
20260510013247 6 0.0 0.0 0.25 3.96 2.74 99 1021.9
20260510012745 6 0.0 0.0 0.30 3.96 2.74 99 1022.1
20260510012242 6 0.0 0.0 0.25 3.91 2.69 99 1022.1
20260510011741 7 0.0 0.0 0.23 3.89 2.67 99 1021.6
20260510011239 7 0.0 0.0 0.20 3.86 2.64 99 1021.5
20260510010737 7 0.0 0.0 0.20 3.86 2.64 99 1021.2
20260510010234 7 0.0 0.0 0.18 3.84 2.62 99 1021.1
20260510005732 7 0.0 0.0 0.15 4.14 2.59 99 1021.1
20260510005230 7 0.0 0.0 0.13 4.11 2.57 99 1020.9
20260510004729 7 0.0 0.0 0.13 4.09 2.54 99 1020.7
20260510004227 7 0.0 0.0 0.13 4.09 2.54 99 1020.4
20260510003724 7 0.0 0.0 0.10 4.06 2.51 99 1020.4
20260510003222 7 0.0 0.0 0.08 4.04 2.49 99 1020.5
20260510002720 7 0.0 0.0 0.08 4.01 2.46 99 1020.5
20260510002218 7 0.0 0.0 0.05 3.99 2.44 99 1020.5
20260510001716 7 0.0 0.0 0.08 3.99 2.44 99 1020.5
20260510001214 7 0.0 0.0 0.08 3.99 2.44 99 1020.5
20260510000712 7 0.0 0.0 0.08 3.99 2.44 99 1020.5
20260510000211 7 0.0 0.0 0.08 3.99 2.44 99 1020.5
20260509235708 7 0.0 0.0 0.08 4.32 2.44 99 1020.4
20260509235206 7 0.0 0.0 0.08 4.32 2.44 99 1020.3
20260509234704 7 0.0 0.0 0.08 4.29 2.41 99 1020.3
20260509234202 7 0.0 0.0 0.08 4.29 2.41 99 1020.1
20260509233700 7 0.0 0.0 0.08 4.29 2.41 99 1020.1
20260509233158 7 0.0 0.0 0.08 4.29 2.41 99 1020.0
20260509232656 7 0.0 0.0 0.10 4.29 2.41 99 1019.8
20260509232154 7 0.0 0.0 0.10 4.29 2.41 99 1019.7
20260509231652 7 0.0 0.0 0.15 4.27 2.39 99 1019.8
20260509231150 7 0.0 0.0 0.13 4.24 2.39 99 1020.1
20260509230648 7 0.0 0.0 0.25 4.24 2.39 99 1020.1
20260509230146 8 0.0 0.0 0.25 4.24 2.39 99 1020.3
20260509225644 8 0.0 0.0 0.36 4.34 2.39 99 1020.0
20260509225142 8 0.0 0.0 0.36 4.34 2.39 99 1019.9
20260509224641 8 0.0 0.0 0.38 4.32 2.36 99 1020.0
20260509224139 8 0.0 0.0 0.38 4.32 2.36 99 1019.8
20260509223637 8 0.0 0.0 0.43 4.32 2.36 99 1019.5
20260509223135 8 0.0 0.0 0.43 4.32 2.36 99 1018.8
20260509222634 8 0.0 0.0 0.46 4.32 2.36 99 1018.8
20260509222131 8 0.0 0.0 0.43 4.29 2.34 99 1018.7
20260509221630 9 0.0 0.0 0.46 4.27 2.31 99 1018.6
20260509221128 9 0.0 0.0 0.41 4.22 2.26 99 1018.4
20260509220626 9 0.0 0.0 0.38 4.17 2.21 99 1018.7
20260509220124 9 0.0 0.0 0.30 4.09 2.13 99 1018.7
20260509215622 9 0.0 0.0 0.28 4.09 2.08 99 1018.9
20260509215120 9 0.0 0.0 0.25 4.06 2.06 99 1018.7
20260509214618 9 0.0 0.0 0.23 4.01 2.01 99 1018.6
20260509214116 9 0.0 0.0 0.20 3.99 1.98 99 1018.6
20260509213614 9 0.0 0.0 0.20 3.96 1.96 99 1018.5
20260509213112 9 0.0 0.0 0.20 3.96 1.96 99 1018.4
20260509212610 10 0.0 0.0 0.18 3.96 1.93 99 1018.3
20260509212109 9 0.0 0.0 0.15 3.94 1.91 99 1018.3
20260509211607 10 0.0 0.0 0.13 3.91 1.88 99 1018.4
20260509211105 10 0.0 0.0 0.10 3.89 1.85 99 1018.4
20260509210603 10 0.0 0.0 0.13 3.89 1.85 99 1018.2
20260509210100 10 0.0 0.0 0.10 3.86 1.83 99 1018.3
20260509205559 10 0.0 0.0 0.08 3.84 1.80 99 1018.1
20260509205057 10 0.0 0.0 0.08 3.84 1.80 99 1018.0
20260509204556 10 0.0 0.0 0.08 3.81 1.78 99 1018.1
20260509204054 10 0.0 0.0 0.08 3.81 1.78 99 1018.0
20260509203551 10 0.0 0.0 0.05 3.78 1.75 99 1017.8
20260509203050 10 0.0 0.0 0.05 3.78 1.75 99 1017.5
20260509202548 10 0.0 0.0 0.05 3.78 1.75 99 1017.7
20260509202046 10 0.0 0.0 0.05 3.78 1.75 99 1017.6
20260509201544 10 0.0 0.0 0.05 3.78 1.75 99 1017.5
20260509201042 10 0.0 0.0 0.05 3.78 1.75 99 1017.5
20260509200541 10 0.0 0.0 0.05 3.78 1.75 99 1017.5
20260509200038 10 0.0 0.0 0.05 3.78 1.75 99 1017.6
20260509195536 10 0.0 0.0 0.03 3.81 1.73 99 1017.5
20260509195035 10 0.0 0.0 0.03 3.81 1.73 99 1017.4
20260509194532 10 0.0 0.0 0.03 3.81 1.73 99 1017.6
20260509194031 10 0.0 0.0 0.00 3.78 1.70 99 1017.7
20260509193529 10 0.0 0.0 0.00 3.78 1.70 99 1017.6
20260509193027 10 0.0 0.0 0.00 3.78 1.70 99 1017.5
20260509192525 10 0.0 0.0 0.00 3.78 1.70 99 1017.1
20260509192023 10 0.0 0.0 0.00 3.78 1.70 99 1016.9
20260509191521 10 0.0 0.0 0.00 3.78 1.70 99 1016.8
20260509191019 10 0.0 0.0 0.00 3.78 1.70 99 1016.6
20260509190517 10 0.0 0.0 0.03 3.78 1.70 99 1016.5
20260509190015 10 0.0 0.0 0.03 3.78 1.70 99 1016.4
20260509185513 11 0.0 0.0 0.03 3.94 1.70 99 1016.3
20260509185011 11 0.0 0.0 0.03 3.94 1.70 99 1016.2
20260509184510 11 0.0 0.0 0.03 3.94 1.70 99 1016.1
20260509184008 12 0.0 0.0 0.03 3.94 1.70 99 1016.0
20260509183506 12 0.0 0.0 0.03 3.94 1.70 99 1015.8
20260509183004 13 0.0 0.0 0.03 3.94 1.70 99 1015.6
20260509182502 13 0.0 0.0 0.03 3.94 1.70 99 1015.3
20260509182000 14 0.0 0.0 0.03 3.94 1.70 99 1015.4
20260509181458 15 0.0 0.0 0.03 3.94 1.70 99 1015.2
20260509180956 16 0.0 0.0 0.05 3.94 1.70 99 1015.1
20260509180455 16 0.0 0.0 0.03 3.91 1.68 99 1015.1
20260509175952 16 0.0 0.0 0.03 3.94 1.68 99 1015.0
20260509175451 16 0.0 0.0 0.03 3.94 1.68 99 1015.2
20260509174949 16 0.0 0.0 0.05 3.94 1.68 99 1015.1
20260509174447 16 0.0 0.0 0.05 3.94 1.68 99 1015.1
20260509173945 16 0.0 0.0 0.05 3.94 1.68 99 1015.0
20260509173443 16 0.0 0.0 0.05 3.94 1.68 99 1015.0
20260509172941 16 0.0 0.0 0.08 3.94 1.68 99 1015.1
20260509172439 16 0.0 0.0 0.08 3.94 1.68 99 1015.0
20260509171937 16 0.0 0.0 0.10 3.94 1.68 99 1014.6
20260509171435 16 0.0 0.0 0.10 3.94 1.68 99 1014.7
20260509170933 16 0.0 0.0 0.13 3.94 1.68 99 1014.6
20260509170431 16 0.0 0.0 0.13 3.94 1.68 99 1014.9
20260509165929 16 0.0 0.0 0.10 4.17 1.65 99 1015.1
20260509165427 16 0.0 0.0 0.10 4.17 1.65 99 1015.2
20260509164925 16 0.0 0.0 0.08 4.14 1.63 99 1015.3
20260509164423 16 0.0 0.0 0.08 4.14 1.63 99 1015.3
20260509163922 16 0.0 0.0 0.08 4.14 1.63 99 1015.4
20260509163420 16 0.0 0.0 0.08 4.14 1.63 99 1015.4
20260509162918 16 0.0 0.0 0.10 4.14 1.63 99 1015.3
20260509162416 16 0.0 0.0 0.08 4.11 1.60 99 1015.3
20260509161915 16 0.0 0.0 0.05 4.09 1.57 99 1015.4
20260509161413 16 0.0 0.0 0.05 4.09 1.57 99 1015.5
20260509160910 16 0.0 0.0 0.08 4.09 1.57 99 1015.6
20260509160408 16 0.0 0.0 0.05 4.06 1.55 99 1015.6
20260509155906 16 0.0 0.0 0.05 4.11 1.55 99 1015.5
20260509155405 16 0.0 0.0 0.05 4.11 1.55 99 1015.5
20260509154903 16 0.0 0.0 0.05 4.11 1.55 99 1015.5
20260509154401 16 0.0 0.0 0.05 4.11 1.55 99 1015.5
20260509153859 17 0.0 0.0 0.05 4.11 1.55 99 1015.3
20260509153357 17 0.0 0.0 0.05 4.11 1.55 99 1015.3
20260509152855 17 0.0 0.0 0.05 4.11 1.55 99 1015.3
20260509152353 16 0.0 0.0 0.03 4.09 1.52 99 1015.4
20260509151851 16 0.0 0.0 0.03 4.09 1.52 99 1015.4
20260509151349 16 0.0 0.0 0.03 4.09 1.52 99 1015.4
20260509150847 16 0.0 0.0 0.05 4.09 1.52 99 1015.6
20260509150346 16 0.0 0.0 0.05 4.09 1.52 99 1015.5
20260509145844 16 0.0 0.0 0.03 4.06 1.50 99 1015.6
20260509145342 16 0.0 0.0 0.03 4.06 1.50 99 1015.7
20260509144840 16 0.0 0.0 0.08 4.06 1.50 99 1015.7
20260509144338 16 0.0 0.0 0.08 4.06 1.50 99 1015.8
20260509143836 16 0.0 0.0 0.10 4.06 1.50 99 1016.0
20260509143334 16 0.0 0.0 0.10 4.06 1.50 99 1016.1
20260509142832 16 0.0 0.0 0.18 4.06 1.50 99 1016.0
20260509142330 16 0.0 0.0 0.18 4.06 1.50 99 1016.0
20260509141828 16 0.0 0.0 0.23 4.06 1.50 99 1016.0
20260509141329 16 0.0 0.0 0.23 4.06 1.50 99 1016.0
20260509140824 16 0.0 0.0 0.25 4.06 1.50 99 1016.1
20260509140322 16 0.0 0.0 0.23 4.04 1.47 99 1016.2
20260509135820 16 0.0 0.0 0.25 4.04 1.47 99 1016.2
20260509135318 16 0.0 0.0 0.25 4.04 1.47 99 1016.2
20260509134816 16 0.0 0.0 0.33 4.01 1.45 99 1016.2
20260509134314 16 0.0 0.0 0.33 4.01 1.45 99 1016.3
20260509133812 16 0.0 0.0 0.41 3.96 1.40 99 1016.5
20260509133310 16 0.0 0.0 0.41 3.96 1.40 99 1016.6
20260509132808 16 0.0 0.0 0.48 3.96 1.37 99 1016.6
20260509132307 16 0.0 0.0 0.46 3.94 1.35 99 1016.6
20260509131805 16 0.0 0.0 0.51 3.91 1.32 99 1016.7
20260509131303 16 0.0 0.0 0.48 3.89 1.30 99 1016.9
20260509130801 16 0.0 0.0 0.56 3.86 1.27 99 1017.0
20260509130259 16 0.0 0.0 0.53 3.84 1.24 99 1016.8
20260509125757 16 0.0 0.0 0.64 3.84 1.24 99 1016.7
20260509125255 15 0.0 0.0 0.64 3.84 1.24 99 1016.6
20260509124753 15 0.0 0.0 0.66 3.78 1.19 99 1016.6
20260509124252 15 0.0 0.0 0.61 3.73 1.14 99 1016.9
20260509123750 15 0.0 0.0 0.64 3.68 1.09 99 1017.3
20260509123248 15 0.0 0.0 0.58 3.63 1.04 99 1017.2
20260509122746 15 0.0 0.0 0.56 3.56 0.97 99 1017.1
20260509122244 14 0.0 0.0 0.53 3.53 0.94 99 1017.1
20260509121742 13 0.0 0.0 0.51 3.48 0.89 99 1017.2
20260509121240 13 0.0 0.0 0.46 3.43 0.84 99 1017.2
20260509120738 13 0.0 0.0 0.46 3.38 0.79 99 1017.0
20260509120236 13 0.0 0.0 0.41 3.33 0.76 99 1017.0
20260509115734 13 0.0 0.0 0.41 3.28 0.71 99 1016.9
20260509115232 13 0.0 0.0 0.36 3.23 0.66 99 1016.8
20260509114730 13 0.0 0.0 0.33 3.17 0.61 99 1016.6
20260509114228 13 0.0 0.0 0.30 3.15 0.58 99 1016.5
20260509113726 13 0.0 0.0 0.25 3.10 0.53 99 1016.4
20260509113224 13 0.0 0.0 0.23 3.07 0.51 99 1016.5
20260509112722 13 0.0 0.0 0.20 3.02 0.46 99 1016.5
20260509112221 13 0.0 0.0 0.18 3.00 0.43 99 1016.7
20260509111719 13 0.0 0.0 0.18 3.00 0.43 99 1016.6
20260509111217 13 0.0 0.0 0.15 2.97 0.41 99 1016.4
20260509110716 13 0.0 0.0 0.15 2.97 0.41 99 1016.3
20260509110214 13 0.0 0.0 0.13 2.95 0.38 99 1016.5
20260509105713 13 0.0 0.0 0.10 2.92 0.36 99 1016.0
20260509105211 13 0.0 0.0 0.08 2.90 0.33 99 1015.7
20260509104709 13 0.0 0.0 0.05 2.87 0.30 99 1015.6
20260509104207 13 0.0 0.0 0.03 2.84 0.28 99 1015.5
20260509103706 13 0.0 0.0 0.05 2.84 0.28 99 1015.5
20260509103204 13 0.0 0.0 0.05 2.84 0.28 99 1015.6
20260509102702 13 0.0 0.0 0.13 2.84 0.28 99 1015.6
20260509102201 13 0.0 0.0 0.10 2.82 0.25 99 1015.4
20260509101659 13 0.0 0.0 0.18 2.82 0.25 99 1015.2
20260509101157 13 0.0 0.0 0.18 2.82 0.25 99 1015.0
20260509100655 13 0.0 0.0 0.20 2.82 0.25 99 1014.7
20260509100154 13 0.0 0.0 0.20 2.82 0.25 99 1014.6
20260509095652 13 0.0 0.0 0.20 2.82 0.25 99 1014.6
20260509095150 13 0.0 0.0 0.20 2.82 0.25 99 1014.5
20260509094649 13 0.0 0.0 0.20 2.82 0.25 99 1014.6
20260509094147 13 0.0 0.0 0.20 2.82 0.25 99 1014.7
20260509093645 13 0.0 0.0 0.20 2.82 0.25 99 1014.9
20260509093143 13 0.0 0.0 0.18 2.79 0.23 99 1014.9
20260509092642 13 0.0 0.0 0.15 2.77 0.20 99 1014.9
20260509092140 13 0.0 0.0 0.10 2.72 0.15 99 1015.0
20260509091638 13 0.0 0.0 0.05 2.67 0.10 99 1014.9
20260509091137 13 0.0 0.0 0.03 2.64 0.08 99 1014.9
20260509090635 13 0.0 0.0 0.03 2.64 0.08 99 1015.0
20260509090133 13 0.0 0.0 0.00 2.62 0.05 99 1014.9
20260509085632 13 0.0 0.0 0.00 2.62 0.05 99 1014.9
20260509085130 13 0.0 0.0 0.00 2.62 0.05 99 1014.8
20260509084628 13 0.0 0.0 0.00 2.62 0.05 99 1014.7
20260509084127 13 0.0 0.0 0.00 2.62 0.05 99 1014.5
20260509083625 13 0.0 0.0 0.00 2.62 0.05 99 1014.5
20260509083123 13 0.0 0.0 0.00 2.62 0.05 99 1014.4
20260509082622 13 0.0 0.0 0.00 2.62 0.05 99 1014.3
20260509082120 13 0.0 0.0 0.00 2.62 0.05 99 1014.3
20260509081618 13 0.0 0.0 0.00 2.62 0.05 99 1014.3
20260509081117 13 0.0 0.0 0.00 2.62 0.05 99 1014.2
20260509080615 14 0.0 0.0 0.00 2.62 0.05 99 1014.2
20260509080113 14 0.0 0.0 0.00 2.62 0.05 99 1014.1
20260509075611 15 0.0 0.0 0.00 2.62 0.05 99 1014.1
20260509075110 16 0.0 0.0 0.00 2.62 0.05 99 1013.9
20260509074608 16 0.0 0.0 0.00 2.62 0.05 99 1013.8
20260509074106 16 0.0 0.0 0.00 2.62 0.05 99 1013.7
20260509073604 16 0.0 0.0 0.00 2.62 0.05 99 1013.6
20260509073103 16 0.0 0.0 0.00 2.62 0.05 99 1013.5
20260509072601 16 0.0 0.0 0.00 2.62 0.05 99 1013.5
20260509072100 16 0.0 0.0 0.00 2.62 0.05 99 1013.5
20260509071558 16 0.0 0.0 0.00 2.62 0.05 99 1013.5
20260509071057 16 0.0 0.0 0.00 2.62 0.05 99 1013.5
20260509070556 16 0.0 0.0 0.00 2.62 0.05 99 1013.5
20260509070053 16 0.0 0.0 0.00 2.62 0.05 99 1013.5
20260509065551 16 0.0 0.0 0.00 2.62 0.05 99 1013.5
20260509065050 16 0.0 0.0 0.00 2.62 0.05 99 1013.5
20260509064548 16 0.0 0.0 0.00 2.62 0.05 99 1013.6
20260509064046 16 0.0 0.0 0.00 2.62 0.05 99 1013.6
20260509063544 16 0.0 0.0 0.00 2.62 0.05 99 1013.5
20260509063043 16 0.0 0.0 0.00 2.62 0.05 99 1013.4
20260509062541 16 0.0 0.0 0.00 2.62 0.05 99 1013.4
20260509062039 16 0.0 0.0 0.00 2.62 0.05 99 1013.4
20260509061537 16 0.0 0.0 0.00 2.62 0.05 99 1013.5
20260509061036 16 0.0 0.0 0.00 2.62 0.05 99 1013.5
20260509060534 16 0.0 0.0 0.00 2.62 0.05 99 1013.4
20260509060033 16 0.0 0.0 0.00 2.62 0.05 99 1013.3
20260509055531 16 0.0 0.0 0.00 2.62 0.05 99 1013.2
20260509055029 16 0.0 0.0 0.00 2.62 0.05 99 1013.2
20260509054527 16 0.0 0.0 0.00 2.62 0.05 99 1013.2
20260509054026 16 0.0 0.0 0.00 2.62 0.05 99 1013.2
20260509053524 16 0.0 0.0 0.00 2.62 0.05 99 1013.1
20260509053023 16 0.0 0.0 0.00 2.62 0.05 99 1013.1
20260509052521 16 0.0 0.0 0.00 2.62 0.05 99 1013.2
20260509052019 16 0.0 0.0 0.00 2.62 0.05 99 1013.4
20260509051517 16 0.0 0.0 0.00 2.62 0.05 99 1013.4
20260509051016 16 0.0 0.0 0.00 2.62 0.05 99 1013.4
20260509050514 16 0.0 0.0 0.00 2.62 0.05 99 1013.4
20260509050012 16 0.0 0.0 0.00 2.62 0.05 99 1013.5
20260509045510 16 0.0 0.0 0.00 2.62 0.05 99 1013.7
20260509045008 16 0.0 0.0 0.00 2.62 0.05 99 1013.8
20260509044506 16 0.0 0.0 0.00 2.62 0.05 99 1013.8
20260509044005 16 0.0 0.0 0.00 2.62 0.05 99 1013.8
20260509043503 16 0.0 0.0 0.03 2.62 0.05 99 1013.8
20260509043001 16 0.0 0.0 0.03 2.62 0.05 99 1013.9
20260509042500 16 0.0 0.0 0.05 2.62 0.05 99 1013.9
20260509041958 15 0.0 0.0 0.05 2.62 0.05 99 1013.9
20260509041456 15 0.0 0.0 0.05 2.62 0.05 99 1013.9
20260509040955 15 0.0 0.0 0.05 2.62 0.05 99 1013.9
20260509040453 15 0.0 0.0 0.05 2.62 0.05 99 1014.0
20260509035951 15 0.0 0.0 0.10 2.62 0.05 99 1013.9
20260509035449 15 0.0 0.0 0.10 2.62 0.05 99 1013.8
20260509034948 15 0.0 0.0 0.10 2.62 0.05 99 1013.9
20260509034446 15 0.0 0.0 0.10 2.62 0.05 99 1013.9
20260509033944 15 0.0 0.0 0.13 2.62 0.05 99 1013.9
20260509033442 15 0.0 0.0 0.13 2.62 0.05 99 1013.9
20260509032941 15 0.0 0.0 0.28 2.59 0.03 99 1014.0
20260509032440 15 0.0 0.0 0.25 2.57 0.00 99 1014.1
20260509031937 15 0.0 0.0 0.36 2.57 0.00 99 1014.1
20260509031436 15 0.0 0.0 0.36 2.57 0.00 99 1014.1
20260509030934 15 0.0 0.0 0.46 2.57 0.00 99 1014.2
20260509030433 15 0.0 0.0 0.46 2.57 0.00 99 1014.2
20260509025931 15 0.0 0.0 0.56 2.57 2.57 99 1014.2
20260509025429 15 0.0 0.0 0.56 2.57 2.57 99 1014.1
20260509024928 15 0.0 0.0 0.69 2.51 2.51 99 1014.1